Regional Weather Roundup
Issued by NWS

Home | Current Version | Previous Version | Text Only | Print | Product List | Glossary Off
Versions: 1 2 3 4 5 6 7 8 9 10 11 12 13 14 15 16 17 18 19 20 21 22 23 24 25 26 27 28 29 30 31 32 33 34 35 36 37 38 39 40 41 42 43 44 45 46 47 48 49 50

000
ASUS44 KMEG 270410
RWRTN
TENNESSEE HOURLY STATE WEATHER ROUNDUP
NATIONAL WEATHER SERVICE MEMPHIS TN
1000 PM CST WED NOV 26 2014

TNZ002-004-019-021-049-052-054-088>092-270500-
WEST TENNESSEE

CITY           SKY/WX    TMP DP  RH WIND       PRES   REMARKS
MEMPHIS INTL   PTCLDY    44  32  62 CALM      30.18R
NWS MEMPHIS      N/A     38 N/A N/A MISG        N/A
JACKSON        MOCLDY    38  33  82 SW6       30.14R WCI  33
DYERSBURG      MOCLDY    39  27  60 W6        30.16R WCI  35
UNION CITY     CLOUDY    36  34  93 W3        30.11R
PARIS          CLOUDY    34  30  86 W6        30.11R WCI  29
HUNTINGDON     MOCLDY    35  32  89 W5        30.12R WCI  31
LEXINGTON      CLOUDY    39  32  75 W6        30.11R WCI  35
SAVANNAH       CLEAR     39  30  70 VRB5      30.14R
$$

TNZ008-025-027-028-033-062-065-066-270500-
NORTH MIDDLE TENNESSEE

CITY           SKY/WX    TMP DP  RH WIND       PRES   REMARKS
NASHVILLE      CLOUDY    41  36  82 W13G22    30.05R
CLARKSVILLE    CLOUDY    39  35  86 W12       30.06R WCI  32
COOKEVILLE     MOCLDY    39  37  93 CALM      29.99F
CROSSVILLE     CLOUDY    37  34  89 VRB3      29.99F
$$

TNZ061-075-076-078-094-096-097-270500-
SOUTH MIDDLE TENNESSEE

CITY           SKY/WX    TMP DP  RH WIND       PRES   REMARKS
FAYETTEVILLE   CLEAR     39  30  70 MISG      30.07R
TULLAHOMA      MOCLDY    39  34  81 W15       30.05R WCI  31
WINCHESTER     MOCLDY    43  36  75 W14G23    30.06R
MCMINNVILLE    MOCLDY    41  39  93 W9        30.02R
COLUMBIA       PTCLDY    39  37  93 W7        30.07R WCI  34
SHELBYVILLE    MOCLDY    41  37  87 W12       30.07R
$$

TNZ017-018-042-046-047-270500-
NORTHEAST TENNESSEE

CITY           SKY/WX    TMP DP  RH WIND       PRES   REMARKS
TRI CITIES     CLOUDY    37  36  96 CALM      30.00S
ELIZABETHTON   MOCLDY    34  34 100 CALM      30.00S
$$

TNZ012-013-036-069-073-074-270500-
CENTRAL EAST TENNESSEE

CITY           SKY/WX    TMP DP  RH WIND       PRES   REMARKS
KNOXVILLE      LGT RAIN  44  31  60 SW20G25   30.02R
OAK RIDGE      CLOUDY    43  35  73 VRB3      30.03S
GATLINBURG     CLOUDY    45  25  45 CALM      30.00F
MORRISTOWN     PTCLDY    43  30  61 W13       30.01S
$$

TNZ083-085-099-270500-
SOUTHEAST TENNESSEE

CITY           SKY/WX    TMP DP  RH WIND       PRES   REMARKS
CHATTANOOGA    CLOUDY    45  38  76 VRB3      30.02F
$$

SKY/WX REPORTED AS FAIR MEANS FEW OR NO CLOUDS BELOW
12 THOUSAND FEET.



USA.gov is the U.S. government's official web portal to all federal, state and local government web resources and services.